Tracking 28799 objects as of 18-Apr-2024
HD Live streaming from Space Station
objects crossing your sky now

IRIDIUM 33 DEB

Track IRIDIUM 33 DEB now!
10-day predictions


NORAD ID: 35625
Int'l Code: 1997-051QX
Perigee: 742.9 km
Apogee: 914.3 km
Inclination: 86.2 °
Period: 101.3 minutes
Semi major axis: 7199 km
RCS: 0.0157 m2 (small)
Launch date: September 14, 1997
Source: United States (US)
Launch site: TYURATAM MISSILE AND SPACE COMPLEX (TTMTR)

Note: This is SATELLITE DEBRIS
Your satellite tracking list
Your tracking list is empty




NASA's NSSDC Master Catalog

Two Line Element Set (TLE):
1 35625U 97051QX  24108.26716615  .00008345  00000-0  35653-2 0  9996
2 35625  86.1892 286.7240 0118981 344.4142 136.5287 14.21154950574242
Source of the keplerian elements: AFSPC